Location: *
(50.6089°N, 2.2719°E)
Time: 06:57:56
(UTC+00:00)

Cosmos 1758 - Pass Details

Date: 18 October 2019
Orbit: 541 x 562 km, 82.5° (Epoch: 21 November)

Event Time Altitude Azimuth Distance (km) Brightness Sun altitude
Rises 17:28:20 0° 196° (SSW) 2,695 7.2 -6.3°
Reaches altitude 10° 17:30:30 10° 200° (SSW) 1,806 6.3 -6.6°
Maximum altitude 17:34:27 64° 282° (WNW) 606 3.8 -7.2°
Drops below altitude 10° 17:38:25 10° 5° (N) 1,818 5.9 -7.8°
Sets 17:40:36 0° 8° (N) 2,716 6.7 -8.2°
